Location: Hohe Wand Kleine Kanzel
(47.8330°N, 16.0170°E)
Time: 16:16:36
(UTC+02:00)

Courier 1B Rocket - Pass Details

Date: 10 August 2021
Orbit: 920 x 1202 km, 28.3° (Epoch: 23 September)

Event Time Altitude Azimuth Distance (km) Brightness Sun altitude
Rises 22:46:36 0° 219° (SW) 4,074 8.1 -20.1°
Enters shadow 22:49:55 - 203° (SSW) 3,314 7.5 -20.4°
Reaches altitude 10° 22:51:16 10° 195° (SSW) 3,079 - -20.5°
Maximum altitude 22:54:37 13° 168° (SSE) 2,795 - -20.8°
Drops below altitude 10° 22:57:55 10° 142° (SE) 3,010 - -21.1°
Sets 23:02:22 0° 117° (ESE) 3,909 - -21.5°
